Home > Weather > Shenyang > Past weeks

Flag for China Past Weather in Shenyang, Liaoning, China — Yesterday and Last 2 Weeks

Now
72 °F

Thunderstorms. Partly sunny.


Feels Like: 71 °F
Forecast: 67 / 79 °F
Wind: 3 mph from Southeast

Location: Shenyang / Taoxian

Current Time: Jun 30, 2016 at 7:36:17 AM

Latest Report: Jun 30, 2016 at 7:00 AM


Visibility: 5 mi

Pressure: 29.65 "Hg

Humidity: 83%

Dew Point: 66 °F

Location of ShenyangLocation

Past Weather in Shenyang — Graph

°F

Shenyang Temperature Yesterday

Maximum temperature yesterday: 73 °F (at 7:00 AM)
Minimum temperature yesterday: 68 °F (at 2:00 AM)
Average temperature yesterday: 70 °F

High & Low Weather Summary for the Past Weeks

 TemperatureHumidityPressure
High86 °F (Jun 26, 12:30 PM)100% (Jun 16, 12:30 AM)29.80 "Hg (Jun 16, 12:30 AM)
Low59 °F (Jun 16, 3:30 AM)31% (Jun 26, 1:00 PM)29.42 "Hg (Jun 16, 3:30 PM)
Average72 °F73%29.64 "Hg
* Reported Jun 15 6:00 AM — Jun 30 6:30 AM, Shenyang, Weather by CustomWeather, © 2016

Note: Actual official high and low records may vary slightly from our data, if they occured in-between our weather recording intervals... More about our weather records

Advertising

Shenyang Weather History for the Previous 24 Hours

Scroll right to see more
 ConditionsComfort  
Time TempWeatherWind HumidityBarometerVisibility
6:30 AM
Thu, Jun 30
72 °FOvercast.6 mph83%29.65 "Hg6 mi
6:00 AM72 °FOvercast.6 mph83%29.65 "Hg5 mi
5:30 AM72 °FOvercast.3 mph83%29.65 "Hg5 mi
5:00 AM72 °FOvercast.6 mph83%29.65 "Hg6 mi
4:30 AM72 °FOvercast.3 mph78%29.65 "Hg4 mi
4:00 AM70 °FOvercast.3 mph88%29.65 "Hg4 mi
3:30 AM70 °FPassing clouds.1 mph88%29.65 "Hg4 mi
3:00 AM70 °FPassing clouds.3 mph83%29.65 "Hg5 mi
2:30 AM70 °FPassing clouds.3 mph88%29.65 "Hg4 mi
2:00 AM70 °FPassing clouds.1 mph88%29.65 "Hg4 mi
1:30 AM70 °FOvercast.1 mph88%29.65 "Hg4 mi
1:00 AM68 °FOvercast.3 mph88%29.65 "HgN/A
12:30 AM70 °FOvercast.3 mph83%29.68 "HgN/A
12:00 AM70 °FLight rain. Overcast.1 mph83%29.68 "HgN/A
11:30 PM
Wed, Jun 29
70 °FOvercast.3 mph83%29.65 "HgN/A
11:00 PM70 °FPassing clouds.3 mph83%29.65 "HgN/A
10:30 PM70 °FOvercast.3 mph83%29.65 "HgN/A
10:00 PM70 °FOvercast.6 mph83%29.65 "HgN/A
9:30 PM70 °FOvercast.3 mph83%29.68 "HgN/A
9:00 PM70 °FOvercast.3 mph83%29.68 "HgN/A
8:30 PM68 °FOvercast.3 mph88%29.68 "HgN/A
8:00 PM68 °FOvercast.1 mph94%29.68 "HgN/A
7:30 PM68 °FOvercast.3 mph88%29.68 "HgN/A
7:00 PM68 °FOvercast.3 mph94%29.68 "HgN/A
6:30 PM68 °FOvercast.3 mph94%29.68 "HgN/A
6:00 PM68 °FOvercast.3 mph94%29.68 "HgN/A
5:30 PM68 °FLight rain. Overcast.3 mph94%29.68 "HgN/A
5:00 PM70 °FSprinkles. Partly sunny.3 mph88%29.68 "Hg5 mi
4:30 PM70 °FSprinkles. Partly sunny.6 mph88%29.68 "Hg4 mi
4:00 PM70 °FLight rain. Overcast.3 mph88%29.68 "Hg4 mi
3:30 PM70 °FLight rain. Overcast.3 mph88%29.68 "Hg4 mi
3:00 PM72 °FLight rain. Overcast.3 mph83%29.68 "HgN/A
2:30 PM70 °FLight rain. Overcast.3 mph88%29.68 "Hg4 mi
2:00 PM72 °FOvercast.6 mph78%29.71 "HgN/A
1:30 PM72 °FLight rain. Overcast.3 mph78%29.71 "Hg4 mi
1:00 PM72 °FLight rain. Overcast.3 mph83%29.71 "Hg4 mi
12:30 PM70 °FLight rain. Overcast.3 mph83%29.71 "Hg4 mi
12:00 PM70 °FLight rain. Overcast.3 mph83%29.74 "Hg4 mi
11:30 AM72 °FLight rain. Overcast.3 mph78%29.74 "Hg4 mi
11:00 AM72 °FLight rain. Overcast.6 mph78%29.74 "Hg4 mi
10:30 AM73 °FLight rain. Overcast.6 mph74%29.74 "Hg4 mi
10:00 AM73 °FOvercast.6 mph69%29.74 "HgN/A
9:30 AM73 °FPartly sunny.6 mph69%29.74 "HgN/A
9:00 AM72 °FPartly sunny.6 mph69%29.74 "HgN/A
8:30 AM73 °FPassing clouds.6 mph65%29.77 "HgN/A
8:00 AM73 °FPassing clouds.6 mph65%29.77 "HgN/A
7:30 AM72 °FPassing clouds.6 mph69%29.77 "HgN/A
7:00 AM73 °FPassing clouds.6 mph65%29.77 "HgN/A
Weather by CustomWeather, © 2016

See weather overviewHow to use our weather pages